Regional Weather Roundup
Issued by NWS Green Bay, WI

Home | Current Version | Previous Version | Text Only | Print | Product List | Glossary On
Versions: 1 2 3 4 5 6 7 8 9 10 11 12 13 14 15 16 17 18 19 20 21 22 23 24 25 26 27 28 29 30 31 32 33 34 35 36 37 38 39 40 41 42 43 44 45 46 47 48 49 50
000
ASUS43 KGRB 220611
RWRGRB

NORTH-CENTRAL AND NORTHEAST WISCONSIN REGIONAL WEATHER ROUNDUP
NATIONAL WEATHER SERVICE GREEN BAY WI
100 AM CDT SUN OCT 22 2017

WIZ005-009-010>012-018-019-220700-
NORTH CENTRAL WISCONSIN

CITY           SKY/WX    TMP DP  RH WIND       PRES   REMARKS
IRONWOOD       LGT RAIN  63  58  83 S18G25    29.74R
MANITOWISH WTR RAIN      60  60 100 S10G16    29.82R
ARBOR VITAE    LGT RAIN  62  60  93 S9        29.83S
EAGLE RIVER    NOT AVBL
LAND O LAKES   LGT RAIN  66  57  71 S8G17     29.83S
RHINELANDER    CLOUDY    66  58  75 SW6       29.84R
PHILLIPS       TSTM      59  59 100 S8        29.80F
ANTIGO         MOCLDY    62  57  82 SE13      29.86S
TOMAHAWK       HVY RAIN  59  56  91 SW6       29.85R
MERRILL        HVY RAIN  64  60  89 W7G18     29.84R
$$

WIZ013-073-220700-
NORTHEAST WISCONSIN

CITY           SKY/WX    TMP DP  RH WIND       PRES   REMARKS
IRON MOUNTAIN  NOT AVBL
MARINETTE      CLEAR     65  57  75 S10       29.90F
OCONTO         PTCLDY    63  57  81 S7        29.89F
$$

WIZ017-030-035>037-045-220700-
CENTRAL WISCONSIN

CITY           SKY/WX    TMP DP  RH WIND       PRES   REMARKS
MEDFORD        LGT RAIN  59  58  96 S7        29.82F
WAUSAU         LGT RAIN  66  60  81 SW12      29.82S
MOSINEE        HVY RAIN  64  59  82 W12       29.86R
MARSHFIELD     LGT RAIN  61  58  90 SW9       29.84R
WISC RAPIDS    LGT RAIN  69  60  73 S12       29.84R
STEVENS POINT  CLOUDY    66  58  75 S10G18    29.84S
WAUPACA        CLOUDY    68  58  70 SE9       29.86F
SHAWANO        CLOUDY    67  58  72 S7        29.87F
CLINTONVILLE   CLOUDY    66  57  72 S9        29.86F
WAUTOMA        MOCLDY   N/A N/A N/A S12       29.85F
$$

WIZ038-039-048-051-220700-
FOX VALLEY

CITY           SKY/WX    TMP DP  RH WIND       PRES   REMARKS
NWS GREEN BAY  CLEAR     66  59  78 S14       29.90S
APPLETON       CLEAR     63  54  72 S10       29.87S
OSHKOSH        CLEAR     67  58  72 S16       29.88F
FOND DU LAC    PTCLDY    69  56  62 S14G24    29.90S
$$

WIZ022-050-052-220700-
EAST CENTRAL WISCONSIN

CITY           SKY/WX    TMP DP  RH WIND       PRES   REMARKS
EPHRAIM        CLOUDY    62  55  80 S14G22    29.92S
WASHINGTON ISL MOCLDY    57  53  86 S10G18    29.92F
STURGEON BAY   CLOUDY    62  57  83 S21G28    29.91F
MANITOWOC      CLOUDY    59  55  87 S15       29.94S
SHEBOYGAN      MOCLDY    62  58  86 S12       29.94S
$$

LMZ563-521-522-541>543-220700-
LAKESHORE

STATION/POSITION TIME  TEMP    WIND        PRES    VSBY  WAVE
                       AIR SEA DIR/SP/G                  HT/PER
                 (UTC) (F)     (DEG/KT/KT) (MB)    (MI)  (FT/S)
SHEBOYGAN LKSHOR 0600   58     180/ 23/ 26 1013.7F
KEWAUNEE LKSHORE 0548   55     180/ 12/ 15 1012.8F
NORTHPORT PIER   0540   61     160/ 10/ 16 1013.5S
N MID LAKE BUOY  0550   63 58  180/ 19/ 23 1014.0R         6/ 6
S GREEN BAY BUOY 0600   63 58  180/ 14/ 17 1012.0
SISTER BAY LKSHO 0604   63     190/ 20/ 26   N/A
MENOMINEE LKSHOR 0548   62     170/  8/ 12 1012.1F
$$



USA.gov is the U.S. government's official web portal to all federal, state and local government web resources and services.